Погода в Кировограде

Хотите узнать прогноз погоды в Кировограде? Тогда Вам сюда: Погода в Кировограде

Поиск расширенной информации на нашем сайте:

Полезная информация:

Новости сайта



02.01.2020
Опубликован Долгосрочный прогноз погоды по городам России и ближнего зарубежья на январь 2020 года.
Карты: Прогноз на январь и февраль 2020 года, Сравнение прогнозируемой аномалии приземной температуры воздуха на январь 2020 года по разным моделям.




Погода в Кировограде - сегодня

Время (UTC), дата Ветер
(°,м/с) 
Видим.   Явления Облачность Т
(°С)
Тd
(°С)
f(%) Тe
(°С)
Pmin
(гПа)
dP
(гПа)
Po
(мм)
O2
(г/м3)
Тmin Tmax R s Состояние
почвы
15 16.04.21 230 (ЮЗ) 10 км    8/8 630 м кучево-дожд. 
[Cb calv]
+7.1 +2.8 74 +5  1014.3  0.2  745  292           
18 16.04.21 200 (Ю) 10 км  слаб. ливневой дождь  10/10 600 м кучево-дожд. 
[Cb calv]
+5.7 +2.8 82 +4  1015.4  746  294    +9.1     
21 16.04.21 190 (Ю) 10 км  слаб. ливневой дождь  10/10 540 м кучево-дожд. 
[Cb calv]
+3.2 +2.2 93 +1  1015.9  0.3  746  297          затоплена
водой 
00 17.04.21 250 (З) 10 км  слаб. ливневой дождь  10/10 360 м кучево-дожд. 
[Cb calv]
+5 +4.3 95 +3  1015.7  746  295           
03 17.04.21 240 (ЮЗ) 10 км  {ливн. осадки}  10/10 500 м кучево-дожд. 
[Cb calv]
+5 +3.3 89 +3  1017  1.2  747  295           
06 17.04.21 260 (З) 10 км  {ливн. осадки}  6/3 300 м верхняя 
[St|Ci fib]
+5.4 +2.5 82 +3  1018.7  1.7  748  295  +2.9       
09 17.04.21 250 (З) 10 км    9/5 720 м верхняя 
[Sc|Ci fib]
+9 +2.1 62 +7  1019.1  0.7  749  292           
12 17.04.21 270 (З) 10 км    9/9 1170 м кучево-дожд. 
[Cb calv]
+10.2 +3.1 61 +9  1019.2  0.2  749  290           
15 17.04.21 260 (З) 10 км    9/4 1200 м средняя 
[Sc|Ac trans]
+9.9 +2.7 61 +10  1019.3  749  291           
18 17.04.21 340 (С) 10 км    9/0 средняя 
[Ac trans]
+8.4 +4.3 75 +9  1019.8  0.4  749  292          затоплена
водой 
21 17.04.21 тихо ()   10 км    10/5 1470 м средняя 
[Sc|Ac As]
+7.4 +3.9 78 +7  1019.4  -0.4  749  293           
00 18.04.21 тихо ()   10 км    10/0 средняя 
[Ac As]
+6.7 +4.1 83 +7  1018.8  -0.7  748  294           
03 18.04.21 тихо ()   10 км    10/0 средняя 
[Ac As]
+5.6 +4.2 91 +6  1018.4  -0.5  748  295           
06 18.04.21 340 (С) 10 км    8/0 средняя 
[Ac trans]
+7.4 +4.4 81 +8  1018.5  0.3  748  293  +5.2         
09 18.04.21 320 (СЗ) 10 км    10/4 1000 м верхняя 
[Sc|Ci fib]
+12.3 +3.3 54 +12  1017.2  -0.9  748  288           
12 18.04.21 250 (З) 10 км    9/9 1000 м кучево-дожд. 
[Cb calv]
+13.7 +2.4 46 +13  1016.2  -0.9  747  286           
15 18.04.21 310 (СЗ) 10 км    8/3 1000 м средняя 
[Sc|Ac trans]
+13.4 +2.2 47 +13  1015.8  -0.4  747  286           
18 18.04.21 350 (С) 10 км    9/0 средняя 
[Ac trans]
+9.8 +1.4 56 +11  1016.9  0.8  747  290    +14.5       
21 18.04.21 тихо ()   10 км    3/0 средняя 
[Ac trans]
+6.7 +3.1 78 +7  1017.2  747  293           
00 19.04.21 тихо ()   10 км    8/0 средняя 
[Ac trans]
+5.4 +3.5 88 +5  1016.4  -0.8  747  294           
03 19.04.21 тихо ()   10 км    10/10 540 м 
[Sc]
+5 +3.8 92 +5  1016.3  -0.2  746  295           
06 19.04.21 360 (С) 10 км    10/10 210 м 
[St]
+7.2 +5.6 90 +6  1016.2  0.1  746  292  +4.4         
09 19.04.21 010 (С) 10 км    9/9 450 м 
[St]
+7.6 +3.9 77 +7  1016.3  0.1  747  292           
12 19.04.21 010 (С) 10 км    9/8 1080 м средняя 
[Sc|Ac trans]
+12 +3.5 56 +12  1015.2  -0.7  746  287           
15 19.04.21 030 (СВ) 10 км    9/4 1200 м средняя 
[Sc|Ac trans]
+11.5 +1.9 52 +11  1014.8  -0.5  746  288           
Время (UTC), дата Ветер
(°,м/с) 
Видим.   Явления Облачность Т
(°С)
Тd
(°С)
f(%) Тe
(°С)
Pmin
(гПа)
dP
(гПа)
Po
(мм)
O2
(г/м3)
Тmin Tmax R s Состояние
почвы

Для получения пояснительной информации подведите курсор к названию столбца.

ПОГОДА в Кировограде - архив

Всё, что Вы хотите узнать о погоде в Кировограде - удобно и подробно!

Выберите нужную дату (начиная с 1 января 2019* года) и нажмите кнопку "Найти".
Будут отображены архивные сводки погоды по пункту Кировоград, начиная с указанной даты.


Отображать данные в формате CSV (для использования в таблицах Excel)


Внимание! Наш архив погоды предназначен исключительно для личного некоммерческого использования в познавательных целях. Если Вам необходимы официальные справки о состоянии погоды (для производственных, юридических, коммерческих и т.п. целей), обращайтесь в органы Росгидромета.

*Примечание: данная дата относится к архиву по метеостанциям СССР (Россия, СНГ, Балтия).
Архив по метеостанциям Зарубежной Европы и Азии (кроме Китая) хранится 10 дней, по другим регионам земного шара (Китай, Африка, Америка, Австралия, Океания) - 1 день.

Кировоград - район местоположения метеостанции


Название, широта, долгота, высота метеостанции:
Кировоград 48.5°ш. 32.2°д. 171 м над ур. моря [Украина]

Дополнительная информация

В oтличие oт бoльшинства пoгoдных сайтoв мы публикуем пoдрoбную метеoинфoрмацию в детальнoм прoфессиoнальнoм фoрмате.

Характеристики температуры и влажнoсти вoздуха измеряются на высoте 2 м в тени вдали oт зданий и деревьев.
Скoрoсть ветра измеряется на высoте 10 м (на урoвне рoста челoвека скoрoсть ветра ниже в 1.5-2 раза). Если метеoстанция нахoдится в гoрoде или в лесу, тo скoрoсть ветра занижена на 2-4 м/с пo сравнению с oткрытым местoм. Скoрoсть ветра над акватoриями крупных рек и oзёр, а также на вершинах хoлмoв на 2-5 м/с выше, чем в oбычных услoвиях.
Атмoсфернoе давление в разных тoчках местнoсти мoжет значительнo oтличаться oт давления на метеoстанции, в зависимoсти oт услoвий рельефа (при пoдъёме на 10 м давление пoнижается примернo на 1 мм рт.ст.).